FW7576 Weather Reports


time (UTC)temp
C
wind
direction
speed
KPH
gust
KPH
rain 1hr
cm
rain 24hr
cm
rain mn
cm
humidity
%
barometer
mb
20260906041542 18 0 0.0 4.8 0.00 0.00 0.00 88 1017.9
20260906034552 19 61 1.6 8.0 0.00 0.00 0.00 88 1018.0
20260906033045 19 50 1.6 11.3 0.00 0.00 0.00 88 1018.0
20260906031605 19 51 4.8 9.7 0.00 0.00 0.00 88 1018.0
20260906030050 20 62 3.2 8.0 0.00 0.00 0.00 87 1018.0
20260906024557 20 53 3.2 11.3 0.00 0.00 0.00 87 1017.9
20260906023045 20 48 4.8 12.9 0.00 0.00 0.00 86 1017.7
20260906021550 20 49 3.2 8.0 0.00 0.00 0.00 86 1017.7
20260906020047 20 16 4.8 12.9 0.00 0.00 0.00 86 1017.7
20260906014543 20 31 3.2 8.0 0.00 0.00 0.00 85 1017.9
20260906013041 20 34 1.6 8.0 0.00 0.00 0.00 85 1017.7
20260906011542 20 23 3.2 8.0 0.00 0.00 0.00 85 1017.7
20260906010052 20 36 3.2 9.7 0.00 0.00 0.00 84 1017.7
20260906004544 21 48 4.8 9.7 0.00 0.00 0.00 84 1017.5
20260906003045 21 37 6.4 12.9 0.00 0.00 0.00 85 1017.5
20260906001551 21 20 4.8 12.9 0.00 0.00 0.00 85 1017.5
20260906000055 21 21 4.8 12.9 0.00 0.00 0.00 86 1017.6
20260905234550 21 37 4.8 14.5 0.00 0.00 0.00 86 1017.6
20260905233042 21 339 4.8 12.9 0.00 0.00 0.00 87 1017.6
20260905231542 21 49 8.0 17.7 0.00 0.00 0.00 88 1017.6
20260905230047 21 18 8.0 16.1 0.00 0.00 0.00 87 1017.6
20260905224543 21 57 4.8 19.3 0.00 0.00 0.00 87 1017.7
20260905223042 21 28 8.0 16.1 0.00 0.00 0.00 86 1017.4
20260905221543 21 37 4.8 20.9 0.00 0.00 0.00 86 1017.2
20260905220045 21 39 6.4 16.1 0.00 0.00 0.00 86 1017.2
20260905214543 21 40 8.0 22.5 0.00 0.00 0.00 85 1017.0
20260905213053 21 53 8.0 17.7 0.00 0.00 0.00 85 1016.7
20260905211600 22 27 11.3 19.3 0.00 0.00 0.00 85 1016.9
20260905210053 22 86 9.7 17.7 0.00 0.00 0.00 84 1016.7
20260905204550 22 351 9.7 20.9 0.00 0.00 0.00 83 1016.7
20260905203042 23 47 11.3 20.9 0.00 0.00 0.00 82 1016.6
20260905201550 23 49 9.7 24.1 0.00 0.00 0.00 82 1016.7
20260905200042 23 29 9.7 20.9 0.00 0.00 0.00 82 1016.6
20260905194546 23 27 9.7 16.1 0.00 0.00 0.00 83 1016.7
20260905193041 23 30 8.0 17.7 0.00 0.00 0.00 84 1016.6
20260905191541 23 59 6.4 16.1 0.00 0.00 0.00 84 1016.7
20260905190041 24 74 8.0 22.5 0.00 0.00 0.00 82 1016.6
20260905184548 25 80 9.7 20.9 0.00 0.00 0.00 82 1016.7
20260905183045 25 65 9.7 20.9 0.00 0.00 0.00 81 1016.5
20260905181544 25 6 6.4 16.1 0.00 0.00 0.00 82 1016.6
20260905180047 25 48 6.4 12.9 0.00 0.00 0.00 82 1016.5
20260905174552 25 58 4.8 12.9 0.00 0.00 0.00 82 1016.4
20260905173057 25 41 6.4 14.5 0.00 0.00 0.00 81 1016.5
20260905171550 24 34 3.2 8.0 0.00 0.00 0.00 82 1016.6
20260905170048 24 60 3.2 11.3 0.00 0.00 0.00 81 1016.6
20260905164542 24 68 4.8 9.7 0.00 0.03 0.00 81 1016.8
20260905163050 24 62 4.8 9.7 0.00 0.03 0.00 82 1016.6
20260905161547 24 63 6.4 14.5 0.00 0.03 0.00 82 1016.8
20260905160045 23 5 4.8 12.9 0.00 0.03 0.00 85 1016.8
20260905154540 23 34 6.4 16.1 0.00 0.41 0.00 86 1016.7
20260905153047 23 37 4.8 14.5 0.00 0.41 0.00 86 1016.6
20260905151549 23 54 6.4 16.1 0.00 0.41 0.00 85 1016.5
20260905150043 23 0 0.0 11.3 0.00 0.41 0.00 86 1016.4
20260905144543 22 60 6.4 16.1 0.00 0.66 0.00 86 1016.3
20260905143048 22 39 4.8 12.9 0.00 0.66 0.00 86 1016.0
20260905141546 21 41 4.8 14.5 0.00 0.66 0.00 85 1015.9
20260905140046 21 354 4.8 12.9 0.00 0.66 0.00 84 1015.9
20260905134558 21 30 6.4 16.1 0.00 0.69 0.00 84 1015.9
20260905133054 21 8 3.2 12.9 0.00 0.69 0.00 83 1016.0
20260905131547 21 44 1.6 8.0 0.00 0.69 0.00 82 1016.3
20260905130044 21 81 0.0 11.3 0.00 0.69 0.00 82 1015.6
20260905124549 21 24 4.8 12.9 0.00 0.69 0.00 83 1015.6
20260905123048 21 70 3.2 8.0 0.00 0.69 0.00 83 1015.4
20260905121542 21 72 1.6 8.0 0.00 0.69 0.00 83 1015.1
20260905120050 20 30 1.6 6.4 0.00 0.69 0.00 83 1015.1
20260905114545 20 45 3.2 12.9 0.00 0.69 0.00 83 1014.9
20260905113042 20 28 3.2 12.9 0.00 0.69 0.00 83 1014.8
20260905111548 20 53 6.4 17.7 0.00 0.69 0.00 84 1014.7
20260905110104 20 58 8.0 14.5 0.00 0.69 0.00 84 1014.4
20260905104556 21 34 4.8 12.9 0.00 0.69 0.00 84 1014.3
20260905103051 21 72 3.2 11.3 0.00 0.69 0.00 84 1014.5
20260905101551 21 64 4.8 12.9 0.00 0.69 0.00 84 1014.3
20260905100045 21 7 4.8 12.9 0.00 0.69 0.00 84 1014.3
20260905094542 21 58 0.0 4.8 0.00 0.71 0.00 84 1014.0
20260905093044 21 0 0.0 3.2 0.00 0.71 0.00 84 1014.1
20260905091601 21 0 0.0 4.8 0.00 0.71 0.00 84 1014.0
20260905090045 21 32 1.6 8.0 0.00 0.71 0.00 84 1014.1
20260905084542 21 30 3.2 8.0 0.00 0.74 0.00 84 1014.0
20260905083049 21 0 1.6 4.8 0.00 0.74 0.00 84 1014.0
20260905081600 21 27 0.0 4.8 0.00 0.74 0.00 85 1013.9
20260905080041 21 0 0.0 8.0 0.00 0.74 0.00 85 1013.9
20260905074542 21 0 1.6 3.2 0.00 0.76 0.00 85 1014.0
20260905073045 21 0 0.0 1.6 0.00 0.76 0.00 85 1013.9
20260905071543 21 0 0.0 4.8 0.00 0.76 0.00 86 1013.9
20260905070050 21 0 0.0 0.0 0.00 0.76 0.00 86 1013.8
20260905064550 21 0 0.0 0.0 0.00 0.76 0.00 86 1013.9
20260905063052 21 0 0.0 0.0 0.00 0.76 0.00 86 1013.9
20260905061545 21 0 0.0 0.0 0.00 0.76 0.00 86 1014.0
20260905060040 21 0 0.0 4.8 0.00 0.76 0.00 86 1014.2
20260905054551 21 0 1.6 4.8 0.00 0.76 0.00 86 1014.1
20260905053044 21 0 0.0 0.0 0.00 0.76 0.00 86 1013.7
20260905051544 21 0 0.0 0.0 0.00 0.76 0.00 87 1014.0
20260905050042 22 0 0.0 0.0 0.00 0.76 0.00 87 1014.0
20260905044540 22 0 0.0 0.0 0.00 0.76 0.76 87 1014.2
20260905043044 22 0 0.0 1.6 0.00 0.76 0.76 86 1014.6